FDB1AR OMDB-OBBI

Flight info

Callsign FDB1AR
Flight time N/A
Altitude 26000
Route NABIX P699 ORMID M556 ORDIG
Aircraft B738/M-SDE2E3FGHIRWXY/LB1

Departure

Time 2026-04-24 14:29
Airport Dubai International Airport (OMDB)

Arrival

Time N/A
Airport Bahrain International Airport (OBBI)
Time Latitude Longitude Altitude Speed Heading
2026-04-24 14:06 25.26757 55.34200 22 ft 0 kts 31°
2026-04-24 14:19 25.26748 55.34194 21 ft 2 kts 31°
2026-04-24 14:19 25.26729 55.34181 20 ft 2 kts 32°
2026-04-24 14:19 25.26715 55.34173 24 ft 2 kts 20°
2026-04-24 14:19 25.26703 55.34167 22 ft 2 kts 53°
2026-04-24 14:20 25.26696 55.34153 22 ft 2 kts 71°
2026-04-24 14:20 25.26693 55.34143 23 ft 0 kts 77°
2026-04-24 14:22 25.26625 55.34266 21 ft 23 kts 122°
2026-04-24 14:23 25.26542 55.34416 20 ft 22 kts 122°
2026-04-24 14:23 25.26501 55.34537 20 ft 11 kts 60°
2026-04-24 14:23 25.26517 55.34613 21 ft 10 kts 114°
2026-04-24 14:23 25.26479 55.34684 21 ft 14 kts 123°
2026-04-24 14:24 25.26418 55.34786 21 ft 16 kts 122°
2026-04-24 14:24 25.26353 55.34908 24 ft 27 kts 121°
2026-04-24 14:24 25.26246 55.35099 23 ft 28 kts 122°
2026-04-24 14:24 25.26144 55.35279 25 ft 27 kts 122°
2026-04-24 14:25 25.26080 55.35395 22 ft 26 kts 122°
2026-04-24 14:25 25.25951 55.35624 24 ft 31 kts 122°
2026-04-24 14:25 25.25839 55.35823 24 ft 30 kts 122°
2026-04-24 14:25 25.25733 55.36012 23 ft 28 kts 122°
2026-04-24 14:26 25.25634 55.36189 24 ft 26 kts 122°
2026-04-24 14:26 25.25540 55.36355 26 ft 25 kts 122°
2026-04-24 14:26 25.25451 55.36514 24 ft 25 kts 122°
2026-04-24 14:26 25.25357 55.36681 23 ft 26 kts 122°
2026-04-24 14:27 25.25262 55.36850 27 ft 25 kts 122°
2026-04-24 14:27 25.25180 55.36996 23 ft 14 kts 122°
2026-04-24 14:27 25.25135 55.37076 28 ft 12 kts 122°
2026-04-24 14:27 25.25106 55.37156 25 ft 12 kts 82°
2026-04-24 14:28 25.25164 55.37214 28 ft 11 kts 33°
2026-04-24 14:28 25.25233 55.37250 31 ft 7 kts 336°
2026-04-24 14:28 25.25286 55.37164 30 ft 39 kts 301°
2026-04-24 14:28 25.25561 55.36668 28 ft 109 kts 301°
2026-04-24 14:29 25.26054 55.35782 32 ft 163 kts 302°
2026-04-24 14:29 25.26472 55.35033 353 ft 171 kts 304°
2026-04-24 14:29 25.27299 55.33547 1290 ft 179 kts 304°
2026-04-24 14:29 25.27767 55.32705 1483 ft 201 kts 304°
2026-04-24 14:30 25.28551 55.31300 1772 ft 225 kts 303°
2026-04-24 14:30 25.29149 55.29687 2426 ft 229 kts 276°
2026-04-24 14:30 25.29002 55.27339 3233 ft 244 kts 264°
2026-04-24 14:30 25.28868 55.26037 3413 ft 259 kts 263°
2026-04-24 14:31 25.28657 55.24041 4047 ft 264 kts 263°
2026-04-24 14:31 25.28442 55.22026 4818 ft 264 kts 263°
2026-04-24 14:31 25.28227 55.20003 5566 ft 266 kts 263°
2026-04-24 14:31 25.28011 55.17964 6298 ft 268 kts 264°
2026-04-24 14:32 25.27794 55.15901 6912 ft 275 kts 263°
2026-04-24 14:32 25.27564 55.13714 7118 ft 298 kts 263°
2026-04-24 14:32 25.27320 55.11395 7573 ft 308 kts 263°
2026-04-24 14:32 25.27072 55.09033 8227 ft 311 kts 263°
2026-04-24 14:33 25.26822 55.06650 8935 ft 313 kts 263°
2026-04-24 14:33 25.26570 55.04252 9616 ft 316 kts 263°
2026-04-24 14:33 25.26315 55.01833 10245 ft 319 kts 263°
2026-04-24 14:33 25.26061 54.99422 10857 ft 322 kts 263°
2026-04-24 14:34 25.25798 54.96924 11517 ft 325 kts 263°
2026-04-24 14:34 25.25535 54.94436 12173 ft 328 kts 263°
2026-04-24 14:34 25.25269 54.91922 12842 ft 331 kts 263°
2026-04-24 14:34 25.25004 54.89417 13512 ft 334 kts 263°
2026-04-24 14:35 25.24732 54.86854 14143 ft 338 kts 263°
2026-04-24 14:35 25.24454 54.84235 14672 ft 340 kts 263°
2026-04-24 14:35 25.24181 54.81666 14924 ft 345 kts 263°
2026-04-24 14:35 25.23897 54.79009 15354 ft 355 kts 263°
2026-04-24 14:36 25.23600 54.76220 15460 ft 374 kts 263°
2026-04-24 14:36 25.23289 54.73308 15580 ft 389 kts 263°
2026-04-24 14:36 25.22967 54.70305 15902 ft 397 kts 263°
2026-04-24 14:36 25.22640 54.67267 16386 ft 400 kts 263°
2026-04-24 14:37 25.22312 54.64211 16919 ft 401 kts 264°
2026-04-24 14:37 25.21981 54.61144 17429 ft 403 kts 264°
2026-04-24 14:37 25.21648 54.58060 17914 ft 406 kts 264°
2026-04-24 14:37 25.21378 54.54948 18336 ft 408 kts 269°
2026-04-24 14:38 25.21507 54.51814 18745 ft 410 kts 277°
2026-04-24 14:38 25.22079 54.48726 19173 ft 412 kts 284°
2026-04-24 14:38 25.22869 54.45677 19589 ft 414 kts 285°
2026-04-24 14:38 25.23675 54.42622 19981 ft 416 kts 285°
2026-04-24 14:39 25.24476 54.39541 20376 ft 418 kts 284°
2026-04-24 14:39 25.25265 54.36442 20760 ft 420 kts 284°
2026-04-24 14:39 25.26046 54.33328 21143 ft 422 kts 284°
2026-04-24 14:39 25.26828 54.30198 21519 ft 424 kts 283°
2026-04-24 14:40 25.27610 54.27054 21888 ft 426 kts 283°
2026-04-24 14:40 25.28396 54.23890 22249 ft 428 kts 283°
2026-04-24 14:40 25.29185 54.20716 22583 ft 430 kts 283°
2026-04-24 14:40 25.29978 54.17522 22928 ft 432 kts 283°
2026-04-24 14:41 25.30772 54.14320 23270 ft 434 kts 283°
2026-04-24 14:41 25.31546 54.11094 23564 ft 435 kts 282°
2026-04-24 14:41 25.32249 54.07839 23842 ft 436 kts 281°
2026-04-24 14:41 25.32927 54.04563 24112 ft 438 kts 281°
2026-04-24 14:42 25.33606 54.01275 24380 ft 439 kts 281°
2026-04-24 14:42 25.34292 53.97982 24635 ft 441 kts 281°
2026-04-24 14:42 25.34989 53.94680 24856 ft 441 kts 281°
2026-04-24 14:42 25.35693 53.91360 24860 ft 445 kts 281°
2026-04-24 14:43 25.36400 53.88031 24866 ft 444 kts 281°
2026-04-24 14:43 25.38248 53.79267 24874 ft 441 kts 281°
2026-04-24 14:43 25.39620 53.72665 24875 ft 440 kts 281°
2026-04-24 14:43 25.40571 53.68083 24876 ft 439 kts 281°
2026-04-24 14:44 25.41255 53.64790 24872 ft 439 kts 281°
2026-04-24 14:44 25.41938 53.61499 24871 ft 439 kts 281°
2026-04-24 14:44 25.42620 53.58207 24876 ft 439 kts 281°
2026-04-24 14:44 25.43305 53.54914 24873 ft 439 kts 281°
2026-04-24 14:45 25.43992 53.51623 24874 ft 439 kts 281°
2026-04-24 14:45 25.44679 53.48328 24876 ft 439 kts 281°
2026-04-24 14:45 25.45367 53.45023 24926 ft 443 kts 281°
2026-04-24 14:45 25.46058 53.41695 25200 ft 444 kts 281°
2026-04-24 14:46 25.46749 53.38370 25509 ft 444 kts 281°
2026-04-24 14:46 25.47440 53.35034 25736 ft 445 kts 281°
2026-04-24 14:46 25.48131 53.31697 25866 ft 446 kts 281°
2026-04-24 14:46 25.48826 53.28336 25872 ft 449 kts 281°
2026-04-24 14:47 25.49513 53.25010 25880 ft 449 kts 281°
2026-04-24 14:47 25.50203 53.21668 25866 ft 437 kts 281°
2026-04-24 14:47 25.50865 53.18463 25861 ft 418 kts 281°
2026-04-24 14:47 25.51502 53.15371 25870 ft 409 kts 281°
2026-04-24 14:48 25.52131 53.12302 25878 ft 409 kts 281°
2026-04-24 14:48 25.52759 53.09228 25891 ft 410 kts 281°
2026-04-24 14:48 25.53389 53.06143 25889 ft 412 kts 281°
2026-04-24 14:48 25.54022 53.03047 25890 ft 412 kts 281°
2026-04-24 14:49 25.54655 52.99950 25889 ft 413 kts 281°
2026-04-24 14:49 25.55289 52.96847 25886 ft 413 kts 281°
2026-04-24 14:49 25.55921 52.93746 25888 ft 413 kts 281°
2026-04-24 14:49 25.56718 52.90683 25883 ft 415 kts 288°
2026-04-24 14:50 25.57923 52.87776 25889 ft 417 kts 296°
2026-04-24 14:50 25.59316 52.84959 25892 ft 417 kts 296°
2026-04-24 14:50 25.60721 52.82158 25889 ft 416 kts 296°
2026-04-24 14:50 25.62121 52.79353 25890 ft 416 kts 296°
2026-04-24 14:51 25.63508 52.76545 25890 ft 415 kts 296°
2026-04-24 14:51 25.64884 52.73736 25894 ft 415 kts 296°
2026-04-24 14:51 25.66254 52.70925 25893 ft 414 kts 296°
2026-04-24 14:51 25.67614 52.68112 25894 ft 414 kts 295°
2026-04-24 14:52 25.68973 52.65301 25895 ft 414 kts 295°
2026-04-24 14:52 25.70335 52.62489 25899 ft 414 kts 296°
2026-04-24 14:52 25.71698 52.59679 25897 ft 414 kts 296°
2026-04-24 14:52 25.73061 52.56869 25896 ft 413 kts 296°
2026-04-24 14:53 25.74421 52.54065 25898 ft 413 kts 296°
2026-04-24 14:53 25.75782 52.51255 25900 ft 413 kts 296°
2026-04-24 14:53 25.77128 52.48440 25903 ft 413 kts 295°
2026-04-24 14:53 25.78453 52.45616 25903 ft 413 kts 295°
2026-04-24 14:54 25.79771 52.42789 25902 ft 412 kts 295°
2026-04-24 14:54 25.81087 52.39968 25904 ft 412 kts 295°
2026-04-24 14:54 25.82405 52.37145 25903 ft 411 kts 295°
2026-04-24 14:54 25.83722 52.34329 25904 ft 411 kts 295°
2026-04-24 14:55 25.84594 52.32464 25906 ft 411 kts 295°
2026-04-24 14:55 25.86363 52.28712 25903 ft 411 kts 297°
2026-04-24 14:55 25.87931 52.26052 25905 ft 413 kts 305°
2026-04-24 14:55 25.89839 52.23653 25915 ft 415 kts 309°
2026-04-24 14:56 25.91810 52.21315 25911 ft 415 kts 309°
2026-04-24 14:56 25.93757 52.19014 25905 ft 414 kts 309°
2026-04-24 14:56 25.95720 52.16676 25906 ft 414 kts 309°
2026-04-24 14:56 25.97676 52.14328 25915 ft 414 kts 309°
2026-04-24 14:57 25.99624 52.11975 25901 ft 413 kts 309°
2026-04-24 14:57 26.01566 52.09623 25906 ft 413 kts 309°
2026-04-24 14:57 26.03510 52.07267 25916 ft 413 kts 309°
2026-04-24 14:57 26.05455 52.04910 25907 ft 413 kts 309°
2026-04-24 14:58 26.07397 52.02554 25913 ft 413 kts 309°
2026-04-24 14:58 26.09378 52.00151 25914 ft 413 kts 308°
2026-04-24 14:58 26.11279 51.97844 25911 ft 413 kts 308°
2026-04-24 14:58 26.13221 51.95485 25909 ft 413 kts 308°
2026-04-24 14:59 26.15139 51.93155 25897 ft 402 kts 308°
2026-04-24 14:59 26.16997 51.90900 25900 ft 390 kts 308°
2026-04-24 14:59 26.18817 51.88683 25906 ft 387 kts 308°
2026-04-24 14:59 26.20631 51.86472 25916 ft 387 kts 308°
2026-04-24 15:00 26.22451 51.84254 25894 ft 388 kts 308°
2026-04-24 15:00 26.24259 51.82012 25468 ft 388 kts 305°
2026-04-24 15:00 26.25816 51.79598 24995 ft 381 kts 296°
2026-04-24 15:00 26.27018 51.76989 24516 ft 377 kts 292°
2026-04-24 15:01 26.28156 51.74360 24039 ft 376 kts 292°
2026-04-24 15:01 26.29295 51.71746 23580 ft 374 kts 293°
2026-04-24 15:01 26.30441 51.69153 23057 ft 372 kts 293°
2026-04-24 15:01 26.31587 51.66579 22581 ft 369 kts 293°
2026-04-24 15:02 26.32725 51.64024 22087 ft 367 kts 293°
2026-04-24 15:02 26.33843 51.61516 21966 ft 356 kts 293°
2026-04-24 15:02 26.34935 51.59061 21581 ft 352 kts 292°
2026-04-24 15:02 26.36015 51.56629 21023 ft 352 kts 292°
2026-04-24 15:03 26.36739 51.54996 20588 ft 356 kts 292°
2026-04-24 15:03 26.38141 51.51647 19845 ft 356 kts 288°
2026-04-24 15:03 26.38981 51.49065 19383 ft 353 kts 286°
2026-04-24 15:03 26.39781 51.46488 18975 ft 351 kts 285°
2026-04-24 15:04 26.40577 51.43927 18543 ft 349 kts 286°
2026-04-24 15:04 26.41378 51.41382 18105 ft 347 kts 286°
2026-04-24 15:04 26.42181 51.38851 17634 ft 345 kts 286°
2026-04-24 15:04 26.42969 51.36375 17209 ft 342 kts 287°
2026-04-24 15:05 26.43789 51.33859 16767 ft 340 kts 287°
2026-04-24 15:05 26.44597 51.31396 16342 ft 337 kts 287°
2026-04-24 15:05 26.45373 51.28939 15933 ft 333 kts 282°
2026-04-24 15:05 26.45583 51.26409 15558 ft 325 kts 264°
2026-04-24 15:06 26.45115 51.23971 15174 ft 321 kts 250°
2026-04-24 15:06 26.44302 51.21660 14791 ft 319 kts 247°
2026-04-24 15:06 26.43434 51.19388 14406 ft 318 kts 246°
2026-04-24 15:06 26.42562 51.17129 14017 ft 316 kts 247°
2026-04-24 15:07 26.41700 51.14877 13628 ft 315 kts 247°
2026-04-24 15:07 26.40859 51.12659 13194 ft 306 kts 247°
2026-04-24 15:07 26.40049 51.10506 12794 ft 297 kts 247°
2026-04-24 15:07 26.39275 51.08439 12444 ft 288 kts 248°
2026-04-24 15:08 26.38516 51.06409 12090 ft 280 kts 248°
2026-04-24 15:08 26.37778 51.04431 11747 ft 273 kts 248°
2026-04-24 15:08 26.37059 51.02504 11425 ft 266 kts 248°
2026-04-24 15:08 26.36359 51.00627 11107 ft 259 kts 248°
2026-04-24 15:09 26.35668 50.98777 10800 ft 258 kts 248°
2026-04-24 15:09 26.34980 50.96936 10601 ft 254 kts 248°
2026-04-24 15:09 26.34307 50.95136 10465 ft 249 kts 248°
2026-04-24 15:09 26.33646 50.93358 10364 ft 248 kts 250°
2026-04-24 15:10 26.33417 50.91461 10211 ft 252 kts 277°
2026-04-24 15:10 26.34021 50.89623 10119 ft 259 kts 301°
2026-04-24 15:10 26.35303 50.88185 9956 ft 269 kts 326°
2026-04-24 15:10 26.37043 50.87396 9820 ft 263 kts 329°
2026-04-24 15:11 26.38294 50.86088 9678 ft 238 kts 295°
2026-04-24 15:11 26.39043 50.84489 9433 ft 231 kts 296°
2026-04-24 15:11 26.39848 50.82936 9029 ft 231 kts 298°
2026-04-24 15:11 26.40689 50.81409 8676 ft 230 kts 300°
2026-04-24 15:12 26.41541 50.79903 8316 ft 229 kts 300°
2026-04-24 15:12 26.42572 50.76679 7575 ft 223 kts 263°
2026-04-24 15:12 26.42060 50.75057 7187 ft 225 kts 238°
2026-04-24 15:13 26.40947 50.73816 6786 ft 230 kts 216°
2026-04-24 15:13 26.39576 50.72904 6456 ft 230 kts 212°
2026-04-24 15:13 26.38091 50.72236 6054 ft 235 kts 190°
2026-04-24 15:13 26.36450 50.72449 5612 ft 245 kts 158°
2026-04-24 15:14 26.35116 50.73625 5203 ft 249 kts 128°